COSMOS 1275 DEB

Satellite information

Favourite Embed

Satellite Type and Status

DEBRISIN ORBIT

Key statistics

Satellite COSMOS 1275 DEB at a glance.

Uptime

16165

Days in orbit

Revolutions

≈ 14.3

Per day

Orbit

LEO

Low Earth Orbit

Inclination

82.9

Latest

Satellite identification and parameters

Extended collection of information and parameters for COSMOS 1275 DEB.

Object identification

Identified? True

Debris? True

Object name: COSMOS 1275 DEB

International designator: 1981-053PY

Object number (NORAD): 42112

Object ID (CCSDS): 42112

Country: COMMONWEALTH OF INDEPENDENT STATES (CIS)

Current information (Y/N): Y

RCS size: SMALL

Orbital parameters

Period: 100.451 minutes

Inclination: 82.8517 deg

SMA: 7158.071 km

Apoapsis: 794.345 km

Periapsis: 765.527 km

RAAN: 165.495 deg

Eccentricy: 0.002013

Argument of periapsis: 211.6805 deg

Mean anomaly: 148.3173 deg

Mean motion: 14.33536524 rev/day

Mean motion (dot): 0.00009999 rev/day2

B* drag term: 0.0035992 1/REarth

Two-line elements (TLE)

Creation date: Feb. 10, 2024, 5:18 p.m.

Reference frame: TEME

Reference center: EARTH

Epoch: Feb. 5, 2024, 2:23 a.m. UTC

TLE line 0: 0 COSMOS 1275 DEB

TLE line 1: 1 42112U 81053PY 24036.09961746 .00009999 00000-0 35992-2 0 9990

TLE line 2: 2 42112 82.8517 165.4950 0020130 211.6805 148.3173 14.33536524517985

Live tracking on map

Real-time ground track for satellite COSMOS 1275 DEB.

In-orbit conjunctions

A list of the most updated potential collisions computed for object COSMOS 1275 DEB.

Target Orbit TCA Probability of collision Miss distance Type
CZ-4B DEB SSO 2024-09-27 13:59:40 0.0001046976 992.0 (m) DEBRIS
COSMOS 1503 LEO 2024-09-23 21:20:34 0.0001445287 466.0 (m) PAYLOAD
COSMOS 783 LEO 2024-07-31 18:24:15 0.0001440592 441.0 (m) PAYLOAD

Associated space launch

Navigation satellite providing location information for the Tsiklon-B navigation system

COSMOS 1275 DEB was lifted into orbit during the mission ‘Kosmos-3M | Parus 27’, on board a Kosmos-3M space rocket.

The launch took place on June 4, 1981, 3:41 p.m. from 132/2.

For more information about the launch, click the button.

Launch to space Kosmos-3M | Parus 27
Kosmos-3M | Parus 27

Agency: N/A

Status: Launch Successful

Launch date: June 4, 1981, 3:41 p.m. UTC

Rocket: Kosmos-3M

Launch pad: 132/2

Location: Plesetsk Cosmodrome, Russian Federation

...

Latest news about this satellite

There are no fresh news available about this satellite. Check back as we update our databases every day.


Newsletter sign-up

Weekly statistics, charts and insights to help you stay on top of the space industry.